Weather History for EICK - September, 2011

Change the Weather History Date:

Sunday, September 4, 2011

  Actual Average Record
Temperature  
Mean Temperature 52 °F -  
Max Temperature 59 °F 60 °F 71 °F (1999)
Min Temperature 45 °F 49 °F 46 °F (2011)
Degree Days  
Heating Degree Days 13    
Growing Degree Days 2 (Base 50)    
Moisture  
Dew Point 49 °F    
Average Humidity 91    
Maximum Humidity 100    
Minimum Humidity 59    
Precipitation  
Precipitation 0.35 in 0.13 in - ()
Sea Level Pressure  
Sea Level Pressure 29.59 in    
Wind  
Wind Speed 10 mph ()    
Max Wind Speed 24 mph    
Max Gust Speed 34 mph    
Visibility 6.8 miles    
Events Rain    
Averages and records for this station are not official NWS values.
T = Trace of Precipitation, MM = Missing Value Source: Averaged Metar Reports

Daily Weather History Graph

Daily Weather History Graph

Search for Another Location

Airport or City:

Trip Planner

Search our weather history database for the weather conditions in past years. The results will help you decide how hot, cold, wet, or windy it might be!

Date:

Astronomy

Sep. 04, 2011 Rise Set
Actual Time 6:50 AM IST 8:14 PM IST
Civil Twilight 6:15 AM IST 8:49 PM IST
Nautical Twilight 5:32 AM IST 9:32 PM IST
Astronomical Twilight 4:45 AM IST 10:18 PM IST
Moon 3:23 PM IST 11:19 PM IST
Length of Visible Light 14h 34m
Length of Day
13h 24m
Waxing Crescent, 47% of the Moon is Illuminated
Sep 4
Waxing Crescent
Sep 4
First Quarter
Sep 12
Full
Sep 20
Last Quarter
Sep 27
New

Hourly Weather History & Observations

Time (IST) Temp. Windchill Dew Point Humidity Pressure Visibility Wind Dir Wind Speed Gust Speed Precip Events Conditions
12:00 AM 48.2 °F - 46.4 °F 93% 29.71 in 6.2 mi WSW 4.6 mph - N/A   Partly Cloudy
12:30 AM 48.2 °F - 46.4 °F 93% 29.71 in 6.2 mi WSW 8.1 mph - N/A   Partly Cloudy
1:00 AM 46 °F - 45 °F 96% 29.72 in 19 mi WSW 8.9 mph - -   Scattered Clouds
1:00 AM 46.4 °F 42.4 °F 44.6 °F 93% 29.71 in 6.2 mi WSW 8.1 mph - N/A   Partly Cloudy
1:30 AM 46.4 °F 43.5 °F 46.4 °F 100% 29.68 in 6.2 mi SW 5.8 mph - N/A   Scattered Clouds
2:00 AM 46.4 °F 44.3 °F 46.4 °F 100% 29.68 in 6.2 mi SSW 4.6 mph - N/A   Scattered Clouds
2:30 AM 46.4 °F 45.2 °F 46.4 °F 100% 29.68 in 6.2 mi SSW 3.5 mph - N/A   Scattered Clouds
3:00 AM 48.2 °F - 46.4 °F 93% 29.68 in 6.2 mi South 4.6 mph - N/A   Scattered Clouds
3:30 AM 50.0 °F - 48.2 °F 94% 29.68 in 6.2 mi South 4.6 mph - N/A   Mostly Cloudy
4:00 AM 48.2 °F - 48.2 °F 100% 29.68 in 6.2 mi South 4.6 mph - N/A   Mostly Cloudy
4:30 AM 48.2 °F - 48.2 °F 100% 29.65 in 6.2 mi South 4.6 mph - N/A   Mostly Cloudy
5:00 AM 50.0 °F - 48.2 °F 94% 29.65 in 6.2 mi South 5.8 mph - N/A   Mostly Cloudy
5:30 AM 50.0 °F - 48.2 °F 94% 29.62 in 6.2 mi South 6.9 mph - N/A   Scattered Clouds
6:00 AM 51.8 °F - 50.0 °F 94% 29.62 in 6.2 mi South 8.1 mph - N/A   Mostly Cloudy
6:30 AM 51.8 °F - 51.8 °F 100% 29.59 in 6.2 mi South 9.2 mph - N/A   Mostly Cloudy
7:00 AM 53 °F - 53 °F 98% 29.60 in 17 mi South 11.2 mph - -   Partly Cloudy
7:00 AM 53.6 °F - 51.8 °F 94% 29.59 in 6.2 mi South 10.4 mph - N/A   Mostly Cloudy
7:30 AM 53.6 °F - 51.8 °F 94% 29.59 in 6.2 mi South 12.7 mph - N/A Rain Light Rain Showers
8:00 AM 53.6 °F - 51.8 °F 94% 29.56 in 6.2 mi South 12.7 mph - N/A   Mostly Cloudy
8:30 AM 53.6 °F - 51.8 °F 94% 29.53 in 6.2 mi South 13.8 mph - N/A   Mostly Cloudy
9:00 AM 55.4 °F - 53.6 °F 94% 29.53 in 6.2 mi South 17.3 mph - N/A Rain Light Rain
9:30 AM 53.6 °F - 53.6 °F 100% 29.53 in 5.0 mi South 18.4 mph 29.9 mph N/A Rain Light Rain
10:00 AM 50.0 °F - 50.0 °F 100% 29.53 in 5.6 mi SSW 11.5 mph - N/A Rain Light Rain
10:30 AM 51.8 °F - 51.8 °F 100% 29.53 in 6.2 mi SSW 8.1 mph - N/A Rain Light Rain
11:00 AM 51.8 °F - 51.8 °F 100% 29.53 in 6.2 mi SSW 10.4 mph - N/A   Mostly Cloudy
11:30 AM 51.8 °F - 51.8 °F 100% 29.56 in 6.2 mi SW 13.8 mph - N/A   Mostly Cloudy
12:00 PM 53.6 °F - 48.2 °F 82% 29.56 in 6.2 mi SW 11.5 mph - N/A   Mostly Cloudy
12:30 PM 57.2 °F - 50.0 °F 77% 29.56 in 6.2 mi SSW 12.7 mph - N/A   Mostly Cloudy
1:00 PM 57.2 °F - 46.4 °F 67% 29.53 in 6.2 mi WSW 18.4 mph - N/A   Scattered Clouds
1:30 PM 57.2 °F - 46.4 °F 67% 29.56 in 6.2 mi SW 17.3 mph - N/A   Mostly Cloudy
2:00 PM 55.4 °F - 46.4 °F 72% 29.56 in 6.2 mi WSW 15.0 mph - N/A   Mostly Cloudy
2:30 PM 59.0 °F - 44.6 °F 59% 29.53 in 6.2 mi SW 21.9 mph - N/A   Mostly Cloudy
3:00 PM 57.2 °F - 46.4 °F 67% 29.53 in 6.2 mi SW 24.2 mph - N/A   Mostly Cloudy
3:30 PM 57.2 °F - 46.4 °F 67% 29.53 in 6.2 mi SW 21.9 mph 34.5 mph N/A   Mostly Cloudy
4:00 PM 53.6 °F - 50.0 °F 88% 29.53 in 6.2 mi SW 20.7 mph - N/A Rain Light Rain Showers
4:30 PM 55.4 °F - 50.0 °F 82% 29.53 in 6.2 mi SW 20.7 mph - N/A   Mostly Cloudy
5:00 PM 51.8 °F - 50.0 °F 94% 29.53 in 6.2 mi WSW 18.4 mph - N/A   Mostly Cloudy
5:30 PM 51.8 °F - 50.0 °F 94% 29.53 in 5.6 mi SW 23.0 mph - N/A Rain Light Rain Showers
6:00 PM 50.0 °F - 50.0 °F 100% 29.53 in 6.2 mi WSW 16.1 mph 27.6 mph N/A   Mostly Cloudy
6:30 PM 53.6 °F - 50.0 °F 88% 29.53 in 6.2 mi SW 17.3 mph - N/A   Mostly Cloudy
7:00 PM 52 °F - 49 °F 87% 29.56 in 16 mi SW 17.9 mph - - Rain Light Rain Showers
7:00 PM 51.8 °F - 50.0 °F 94% 29.53 in 6.2 mi SW 17.3 mph - N/A   Mostly Cloudy
7:30 PM 51.8 °F - 50.0 °F 94% 29.53 in 6.2 mi SW 17.3 mph - N/A   Mostly Cloudy
8:00 PM 51.8 °F - 50.0 °F 94% 29.53 in 5.6 mi WSW 17.3 mph - N/A   Mostly Cloudy
8:30 PM 51.8 °F - 50.0 °F 94% 29.56 in 6.2 mi WSW 16.1 mph - N/A Rain Light Rain Showers
9:00 PM 51.8 °F - 50.0 °F 94% 29.56 in 6.2 mi WSW 17.3 mph - N/A Rain Light Rain Showers
9:30 PM 50.0 °F - 48.2 °F 94% 29.59 in 6.2 mi WSW 15.0 mph - N/A Rain Light Rain Showers
10:00 PM 50.0 °F - 50.0 °F 100% 29.59 in 6.2 mi WSW 15.0 mph - N/A   Scattered Clouds
10:30 PM 50.0 °F - 50.0 °F 100% 29.59 in 6.2 mi SW 15.0 mph - N/A Rain Light Rain Showers
11:00 PM 51.8 °F - 50.0 °F 94% 29.62 in 6.2 mi WSW 16.1 mph - N/A   Mostly Cloudy
11:30 PM 51.8 °F - 48.2 °F 88% 29.62 in 6.2 mi West 20.7 mph - N/A   Partly Cloudy